Time,TemperatureF,DewpointF,PressureIn,WindDirection,WindDirectionDegrees,WindSpeedMPH,WindSpeedGustMPH,Humidity,HourlyPrecipIn,Conditions,Clouds,dailyrainin,SoftwareType,DateUTC
2013-02-17 00:07:00,16.0,10.0,30.11,WNW,288,12.0,-999.0,76,-99.99,,,0.00,weatherlink.com 1.10,2013-02-17 05:07:00,
2013-02-17 00:22:00,15.9,10.0,30.11,West,278,8.0,-999.0,77,-99.99,,,0.00,weatherlink.com 1.10,2013-02-17 05:22:00,
2013-02-17 00:37:00,15.7,10.0,30.12,West,277,7.0,-999.0,78,-99.99,,,0.00,weatherlink.com 1.10,2013-02-17 05:37:00,
2013-02-17 00:52:00,15.7,10.0,30.11,WNW,292,9.0,-999.0,78,-99.99,,,0.00,weatherlink.com 1.10,2013-02-17 05:52:00,
2013-02-17 01:07:00,15.7,10.0,30.12,West,277,11.0,-999.0,79,-99.99,,,0.00,weatherlink.com 1.10,2013-02-17 06:07:00,
2013-02-17 01:23:00,15.7,10.0,30.12,West,281,15.0,-999.0,79,-99.99,,,0.00,weatherlink.com 1.10,2013-02-17 06:23:00,
2013-02-17 01:37:00,15.6,11.0,30.12,West,280,11.0,-999.0,80,-99.99,,,0.00,weatherlink.com 1.10,2013-02-17 06:37:00,
2013-02-17 01:53:00,15.5,10.0,30.12,West,277,7.0,-999.0,80,-99.99,,,0.00,weatherlink.com 1.10,2013-02-17 06:53:00,
2013-02-17 02:07:00,15.2,10.0,30.13,West,275,14.0,-999.0,81,-99.99,,,0.00,weatherlink.com 1.10,2013-02-17 07:07:00,
2013-02-17 02:23:00,15.0,10.0,30.13,West,275,6.0,-999.0,82,-99.99,,,0.00,weatherlink.com 1.10,2013-02-17 07:23:00,
2013-02-17 02:38:00,14.9,10.0,30.13,West,278,11.0,-999.0,82,-99.99,,,0.00,weatherlink.com 1.10,2013-02-17 07:38:00,
2013-02-17 02:53:00,14.9,11.0,30.13,West,278,6.0,-999.0,83,-99.99,,,0.00,weatherlink.com 1.10,2013-02-17 07:53:00,
2013-02-17 03:08:00,14.8,11.0,30.13,West,276,7.0,-999.0,84,-99.99,,,0.00,weatherlink.com 1.10,2013-02-17 08:08:00,
2013-02-17 03:23:00,14.7,11.0,30.13,West,273,6.0,-999.0,84,-99.99,,,0.00,weatherlink.com 1.10,2013-02-17 08:23:00,
2013-02-17 03:39:00,14.6,11.0,30.13,West,275,6.0,-999.0,85,-99.99,,,0.00,weatherlink.com 1.10,2013-02-17 08:39:00,
2013-02-17 03:53:00,14.5,11.0,30.13,West,276,6.0,-999.0,85,-99.99,,,0.00,weatherlink.com 1.10,2013-02-17 08:53:00,
2013-02-17 04:08:00,14.5,11.0,30.13,West,281,7.0,-999.0,86,-99.99,,,0.00,weatherlink.com 1.10,2013-02-17 09:08:00,
2013-02-17 04:23:00,14.5,11.0,30.13,West,279,6.0,-999.0,86,-99.99,,,0.00,weatherlink.com 1.10,2013-02-17 09:23:00,
2013-02-17 04:38:00,14.4,11.0,30.14,West,277,8.0,-999.0,86,-99.99,,,0.00,weatherlink.com 1.10,2013-02-17 09:38:00,
2013-02-17 04:54:00,14.4,11.0,30.14,WNW,282,6.0,-999.0,86,-99.99,,,0.00,weatherlink.com 1.10,2013-02-17 09:54:00,
2013-02-17 05:08:00,14.2,11.0,30.15,WNW,282,6.0,-999.0,86,-99.99,,,0.00,weatherlink.com 1.10,2013-02-17 10:08:00,
2013-02-17 05:24:00,14.1,11.0,30.15,WNW,283,2.0,-999.0,87,-99.99,,,0.00,weatherlink.com 1.10,2013-02-17 10:24:00,
2013-02-17 05:39:00,14.1,11.0,30.15,WNW,283,5.0,-999.0,87,-99.99,,,0.00,weatherlink.com 1.10,2013-02-17 10:39:00,
2013-02-17 05:54:00,14.1,11.0,30.16,WNW,283,4.0,-999.0,87,-99.99,,,0.00,weatherlink.com 1.10,2013-02-17 10:54:00,
2013-02-17 06:09:00,13.9,11.0,30.16,WNW,282,6.0,-999.0,87,-99.99,,,0.00,weatherlink.com 1.10,2013-02-17 11:09:00,
2013-02-17 06:24:00,13.9,11.0,30.17,WNW,282,6.0,-999.0,87,-99.99,,,0.00,weatherlink.com 1.10,2013-02-17 11:24:00,
2013-02-17 06:39:00,13.8,11.0,30.18,WNW,282,5.0,-999.0,87,-99.99,,,0.00,weatherlink.com 1.10,2013-02-17 11:39:00,
2013-02-17 06:55:00,13.8,11.0,30.18,WNW,283,5.0,-999.0,88,-99.99,,,0.00,weatherlink.com 1.10,2013-02-17 11:55:00,
2013-02-17 07:09:00,14.1,11.0,30.19,WNW,282,7.0,-999.0,88,-99.99,,,0.00,weatherlink.com 1.10,2013-02-17 12:09:00,
2013-02-17 07:24:00,14.4,12.0,30.19,WNW,282,6.0,-999.0,88,-99.99,,,0.00,weatherlink.com 1.10,2013-02-17 12:24:00,
2013-02-17 07:39:00,14.3,11.0,30.20,WNW,283,2.0,-999.0,87,-99.99,,,0.00,weatherlink.com 1.10,2013-02-17 12:39:00,
2013-02-17 07:55:00,14.5,11.0,30.20,WNW,283,7.0,-999.0,87,-99.99,,,0.00,weatherlink.com 1.10,2013-02-17 12:55:00,
2013-02-17 08:10:00,14.9,12.0,30.21,WNW,283,6.0,-999.0,86,-99.99,,,0.00,weatherlink.com 1.10,2013-02-17 13:10:00,
2013-02-17 08:25:00,15.1,12.0,30.21,WNW,282,6.0,-999.0,86,-99.99,,,0.00,weatherlink.com 1.10,2013-02-17 13:25:00,
2013-02-17 08:40:00,15.5,12.0,30.22,WNW,282,8.0,-999.0,86,-99.99,,,0.00,weatherlink.com 1.10,2013-02-17 13:40:00,
2013-02-17 08:55:00,15.9,12.0,30.22,West,277,12.0,-999.0,85,-99.99,,,0.00,weatherlink.com 1.10,2013-02-17 13:55:00,
2013-02-17 09:10:00,17.0,13.0,30.23,West,277,6.0,-999.0,84,-99.99,,,0.00,weatherlink.com 1.10,2013-02-17 14:10:00,
2013-02-17 09:26:00,17.4,13.0,30.23,West,279,7.0,-999.0,83,-99.99,,,0.00,weatherlink.com 1.10,2013-02-17 14:26:00,
2013-02-17 09:40:00,17.6,13.0,30.23,West,280,5.0,-999.0,82,-99.99,,,0.00,weatherlink.com 1.10,2013-02-17 14:40:00,
2013-02-17 09:55:00,18.1,14.0,30.23,WNW,286,5.0,-999.0,82,-99.99,,,0.00,weatherlink.com 1.10,2013-02-17 14:55:00,
2013-02-17 10:11:00,18.3,13.0,30.24,West,273,4.0,-999.0,81,-99.99,,,0.00,weatherlink.com 1.10,2013-02-17 15:11:00,
2013-02-17 10:26:00,19.1,14.0,30.24,WNW,302,6.0,-999.0,79,-99.99,,,0.00,weatherlink.com 1.10,2013-02-17 15:26:00,
2013-02-17 10:41:00,19.8,14.0,30.24,WNW,286,7.0,-999.0,77,-99.99,,,0.00,weatherlink.com 1.10,2013-02-17 15:41:00,
2013-02-17 10:56:00,20.1,12.0,30.24,West,264,8.0,-999.0,71,-99.99,,,0.00,weatherlink.com 1.10,2013-02-17 15:56:00,
2013-02-17 11:11:00,20.6,13.0,30.25,NW,320,10.0,-999.0,73,-99.99,,,0.00,weatherlink.com 1.10,2013-02-17 16:11:00,
2013-02-17 11:26:00,21.1,12.0,30.25,WNW,292,8.0,-999.0,68,-99.99,,,0.00,weatherlink.com 1.10,2013-02-17 16:26:00,
2013-02-17 11:41:00,21.5,11.0,30.25,WNW,299,6.0,-999.0,64,-99.99,,,0.00,weatherlink.com 1.10,2013-02-17 16:41:00,
2013-02-17 11:56:00,22.8,11.0,30.25,WNW,292,11.0,-999.0,61,-99.99,,,0.00,weatherlink.com 1.10,2013-02-17 16:56:00,
2013-02-17 12:11:00,22.9,10.0,30.25,WNW,285,6.0,-999.0,58,-99.99,,,0.00,weatherlink.com 1.10,2013-02-17 17:11:00,
2013-02-17 12:26:00,22.9,9.0,30.24,WNW,296,8.0,-999.0,55,-99.99,,,0.00,weatherlink.com 1.10,2013-02-17 17:26:00,
2013-02-17 12:42:00,23.3,9.0,30.24,NW,305,6.0,-999.0,55,-99.99,,,0.00,weatherlink.com 1.10,2013-02-17 17:42:00,
2013-02-17 12:57:00,24.0,8.0,30.24,NNW,332,7.0,-999.0,51,-99.99,,,0.00,weatherlink.com 1.10,2013-02-17 17:57:00,
2013-02-17 13:12:00,23.5,8.0,30.24,WNW,300,6.0,-999.0,51,-99.99,,,0.00,weatherlink.com 1.10,2013-02-17 18:12:00,
2013-02-17 13:27:00,23.7,8.0,30.24,West,279,11.0,-999.0,51,-99.99,,,0.00,weatherlink.com 1.10,2013-02-17 18:27:00,
2013-02-17 13:42:00,24.2,9.0,30.23,WNW,292,5.0,-999.0,52,-99.99,,,0.00,weatherlink.com 1.10,2013-02-17 18:42:00,
2013-02-17 13:57:00,24.2,8.0,30.23,WNW,300,9.0,-999.0,50,-99.99,,,0.00,weatherlink.com 1.10,2013-02-17 18:57:00,
2013-02-17 14:12:00,25.1,8.0,30.23,North,349,9.0,-999.0,49,-99.99,,,0.00,weatherlink.com 1.10,2013-02-17 19:12:00,
2013-02-17 14:27:00,25.5,8.0,30.22,WNW,284,11.0,-999.0,47,-99.99,,,0.00,weatherlink.com 1.10,2013-02-17 19:27:00,
2013-02-17 14:42:00,26.1,8.0,30.22,West,278,13.0,-999.0,47,-99.99,,,0.00,weatherlink.com 1.10,2013-02-17 19:42:00,
2013-02-17 14:57:00,26.3,9.0,30.22,West,279,7.0,-999.0,48,-99.99,,,0.00,weatherlink.com 1.10,2013-02-17 19:57:00,
2013-02-17 15:12:00,26.4,8.0,30.22,West,280,9.0,-999.0,46,-99.99,,,0.00,weatherlink.com 1.10,2013-02-17 20:12:00,
2013-02-17 15:28:00,25.5,8.0,30.22,WNW,284,9.0,-999.0,47,-99.99,,,0.00,weatherlink.com 1.10,2013-02-17 20:28:00,
2013-02-17 15:58:00,25.9,9.0,30.23,West,275,9.0,-999.0,48,-99.99,,,0.00,weatherlink.com 1.10,2013-02-17 20:58:00,
2013-02-17 16:13:00,25.8,9.0,30.22,WNW,286,4.0,-999.0,49,-99.99,,,0.00,weatherlink.com 1.10,2013-02-17 21:13:00,
2013-02-17 16:28:00,26.4,9.0,30.22,WSW,248,7.0,-999.0,49,-99.99,,,0.00,weatherlink.com 1.10,2013-02-17 21:28:00,
2013-02-17 16:43:00,26.1,10.0,30.22,WSW,255,3.0,-999.0,51,-99.99,,,0.00,weatherlink.com 1.10,2013-02-17 21:43:00,
2013-02-17 16:58:00,26.3,10.0,30.22,West,267,10.0,-999.0,51,-99.99,,,0.00,weatherlink.com 1.10,2013-02-17 21:58:00,
2013-02-17 17:13:00,26.4,10.0,30.22,West,269,5.0,-999.0,50,-99.99,,,0.00,weatherlink.com 1.10,2013-02-17 22:13:00,
2013-02-17 17:29:00,26.5,10.0,30.23,West,266,5.0,-999.0,49,-99.99,,,0.00,weatherlink.com 1.10,2013-02-17 22:29:00,
2013-02-17 17:43:00,26.8,11.0,30.23,West,265,4.0,-999.0,51,-99.99,,,0.00,weatherlink.com 1.10,2013-02-17 22:43:00,
2013-02-17 17:58:00,26.2,11.0,30.23,WSW,242,5.0,-999.0,54,-99.99,,,0.00,weatherlink.com 1.10,2013-02-17 22:58:00,
2013-02-17 18:13:00,25.7,12.0,30.23,WSW,243,4.0,-999.0,57,-99.99,,,0.00,weatherlink.com 1.10,2013-02-17 23:13:00,
2013-02-17 18:28:00,25.2,13.0,30.23,WSW,243,3.0,-999.0,60,-99.99,,,0.00,weatherlink.com 1.10,2013-02-17 23:28:00,
2013-02-17 18:44:00,25.0,14.0,30.23,WSW,243,0.0,-999.0,62,-99.99,,,0.00,weatherlink.com 1.10,2013-02-17 23:44:00,
2013-02-17 18:59:00,24.7,14.0,30.23,WSW,243,0.0,-999.0,63,-99.99,,,0.00,weatherlink.com 1.10,2013-02-17 23:59:00,
2013-02-17 19:14:00,24.2,14.0,30.23,WSW,243,0.0,-999.0,64,-99.99,,,0.00,weatherlink.com 1.10,2013-02-18 00:14:00,
2013-02-17 19:29:00,23.9,13.0,30.23,WSW,243,0.0,-999.0,64,-99.99,,,0.00,weatherlink.com 1.10,2013-02-18 00:29:00,
2013-02-17 19:44:00,23.8,14.0,30.23,WSW,243,0.0,-999.0,66,-99.99,,,0.00,weatherlink.com 1.10,2013-02-18 00:44:00,
2013-02-17 19:59:00,23.7,14.0,30.23,WSW,243,0.0,-999.0,66,-99.99,,,0.00,weatherlink.com 1.10,2013-02-18 00:59:00,
2013-02-17 20:14:00,23.6,13.0,30.23,WSW,243,0.0,-999.0,65,-99.99,,,0.00,weatherlink.com 1.10,2013-02-18 01:14:00,
2013-02-17 20:29:00,23.4,14.0,30.23,WSW,243,1.0,-999.0,66,-99.99,,,0.00,weatherlink.com 1.10,2013-02-18 01:29:00,
2013-02-17 20:44:00,23.3,14.0,30.23,WSW,243,0.0,-999.0,67,-99.99,,,0.00,weatherlink.com 1.10,2013-02-18 01:44:00,
2013-02-17 20:59:00,23.1,14.0,30.23,WSW,243,0.0,-999.0,68,-99.99,,,0.00,weatherlink.com 1.10,2013-02-18 01:59:00,
2013-02-17 21:14:00,23.0,14.0,30.23,WSW,243,2.0,-999.0,67,-99.99,,,0.00,weatherlink.com 1.10,2013-02-18 02:14:00,
2013-02-17 21:29:00,22.9,13.0,30.23,WSW,242,1.0,-999.0,67,-99.99,,,0.00,weatherlink.com 1.10,2013-02-18 02:29:00,
2013-02-17 21:44:00,22.5,14.0,30.23,WSW,242,2.0,-999.0,69,-99.99,,,0.00,weatherlink.com 1.10,2013-02-18 02:44:00,
2013-02-17 22:00:00,22.3,13.0,30.23,WSW,238,2.0,-999.0,68,-99.99,,,0.00,weatherlink.com 1.10,2013-02-18 03:00:00,
2013-02-17 22:15:00,22.2,13.0,30.23,WSW,238,3.0,-999.0,69,-99.99,,,0.00,weatherlink.com 1.10,2013-02-18 03:15:00,
2013-02-17 22:30:00,22.0,13.0,30.23,WSW,238,3.0,-999.0,69,-99.99,,,0.00,weatherlink.com 1.10,2013-02-18 03:30:00,
2013-02-17 22:45:00,22.1,13.0,30.23,SW,236,2.0,-999.0,69,-99.99,,,0.00,weatherlink.com 1.10,2013-02-18 03:45:00,
2013-02-17 23:00:00,22.3,14.0,30.23,SW,236,3.0,-999.0,69,-99.99,,,0.00,weatherlink.com 1.10,2013-02-18 04:00:00,
2013-02-17 23:15:00,22.2,13.0,30.24,SW,229,5.0,-999.0,69,-99.99,,,0.00,weatherlink.com 1.10,2013-02-18 04:15:00,
2013-02-17 23:30:00,22.1,13.0,30.23,South,183,4.0,-999.0,69,-99.99,,,0.00,weatherlink.com 1.10,2013-02-18 04:30:00,
2013-02-17 23:45:00,22.0,13.0,30.23,South,171,2.0,-999.0,69,-99.99,,,0.00,weatherlink.com 1.10,2013-02-18 04:45:00,